EW8163 Weather Reports


Display with metric or nautical units.
time (UTC)temp
F
wind
direction
speed
MPH
gust
MPH
rain 1hr
in
rain 24hr
in
rain mn
in
humidity
%
barometer
mb
20260507085227 38 270 0.0 0.0 0.00 0.00 0.00 97 1023.0
20260507083327 38 270 0.0 0.0 0.00 0.00 0.00 97 1023.1
20260507082328 39 270 0.0 0.0 0.00 0.00 0.00 97 1023.1
20260507081328 39 270 0.0 0.0 0.00 0.00 0.00 97 1023.1
20260507080327 39 270 0.0 0.0 0.00 0.00 0.00 97 1023.2
20260507075328 39 270 0.0 0.0 0.00 0.00 0.00 96 1023.2
20260507073227 39 270 0.0 0.0 0.00 0.00 0.00 96 1023.4
20260507072227 40 270 0.0 0.0 0.00 0.00 0.00 96 1023.5
20260507072125 40 270 0.0 0.0 0.00 0.00 0.00 97 1023.6
20260507071128 40 270 0.0 0.0 0.00 0.00 0.00 97 1023.5
20260507065216 40 270 0.0 0.0 0.00 0.00 0.00 95 1023.5
20260507065117 40 270 0.0 0.0 0.00 0.00 0.00 96 1023.4
20260507064214 41 270 0.0 0.0 0.00 0.00 0.00 96 1023.3
20260507062216 41 270 0.0 0.0 0.00 0.00 0.00 96 1023.0
20260507061216 41 270 0.0 0.0 0.00 0.00 0.00 96 1023.0
20260507060217 41 270 0.0 0.0 0.00 0.00 0.00 95 1023.0
20260507055214 41 270 0.0 0.0 0.00 0.00 0.00 94 1022.9
20260507055116 42 270 0.0 0.0 0.00 0.00 0.00 95 1023.0
20260507054115 42 270 0.0 0.0 0.00 0.00 0.00 95 1023.0
20260507053114 42 270 0.0 0.0 0.00 0.00 0.00 95 1023.0
20260507052118 43 270 0.0 0.0 0.00 0.00 0.00 95 1023.1
20260507052015 43 270 0.0 0.0 0.00 0.00 0.00 95 1023.2
20260507051017 43 270 0.0 0.0 0.00 0.00 0.00 95 1023.1
20260507050016 43 270 0.0 0.0 0.00 0.00 0.00 93 1023.1
20260507045016 44 270 0.0 0.0 0.00 0.00 0.00 94 1023.1
20260507044016 44 270 0.0 0.0 0.00 0.00 0.00 93 1023.2
20260507043015 45 270 0.0 0.0 0.00 0.00 0.00 92 1023.2
20260507042016 45 270 0.0 0.0 0.00 0.00 0.00 93 1023.2
20260507041914 45 270 0.0 0.0 0.00 0.00 0.00 93 1023.2
20260507040915 46 270 0.0 0.0 0.00 0.00 0.00 92 1023.2
20260507035931 46 270 0.0 0.0 0.00 0.00 0.00 92 1023.0
20260507034916 47 270 0.0 0.0 0.00 0.00 0.00 91 1022.9
20260507033915 47 270 0.0 0.0 0.00 0.00 0.00 90 1022.8
20260507033013 47 270 0.0 0.0 0.00 0.00 0.00 90 1022.7
20260507032014 48 270 0.0 0.0 0.00 0.00 0.00 89 1022.5
20260507031916 48 270 0.0 0.0 0.00 0.00 0.00 90 1022.5
20260507030916 49 270 0.0 0.0 0.00 0.00 0.00 88 1022.5
20260507025915 49 270 0.0 0.0 0.00 0.00 0.00 88 1022.5
20260507024916 50 270 0.0 0.0 0.00 0.00 0.00 87 1022.5
20260507024816 50 270 0.0 0.0 0.00 0.00 0.00 86 1022.4
20260507023816 51 270 0.0 0.0 0.00 0.00 0.00 86 1022.3
20260507023715 51 270 0.0 0.0 0.00 0.00 0.00 86 1022.3
20260507022716 52 292 0.0 0.0 0.00 0.00 0.00 83 1022.3
20260507021714 53 292 0.0 0.0 0.00 0.00 0.00 82 1022.2
20260507015815 55 292 0.0 0.0 0.00 0.00 0.00 78 1022.1
20260507015714 55 292 0.0 0.0 0.00 0.00 0.00 77 1022.1
20260507015615 55 292 0.0 0.0 0.00 0.00 0.00 76 1022.1
20260507014615 57 292 0.0 0.0 0.00 0.00 0.00 72 1022.0
20260507013616 59 292 0.0 1.0 0.00 0.00 0.00 66 1022.1
20260507012615 62 22 0.0 1.0 0.00 0.00 0.00 62 1021.9
20260507011615 63 9 2.0 5.0 0.00 0.00 0.00 61 1021.9
20260507010615 62 45 0.0 0.0 0.00 0.00 0.00 61 1021.7
20260507005616 64 101 0.0 0.0 0.00 0.00 0.00 60 1021.7
20260507004615 64 135 0.0 0.0 0.00 0.00 0.00 59 1021.7
20260507004516 64 204 0.0 1.0 0.00 0.00 0.00 58 1021.7
20260507003614 64 333 0.0 2.0 0.00 0.00 0.00 59 1021.7
20260507001714 65 129 1.0 3.0 0.00 0.00 0.00 58 1021.5
20260507001615 65 114 1.0 3.0 0.00 0.00 0.00 57 1021.4
20260507000615 65 360 1.0 4.0 0.00 0.00 0.00 58 1021.3
20260506235615 64 345 1.0 3.0 0.00 0.00 0.00 58 1021.4
20260506233616 65 70 0.0 4.0 0.00 0.00 0.00 59 1021.2
20260506232617 64 9 1.0 4.0 0.00 0.00 0.00 58 1021.2
20260506231615 64 360 1.0 5.0 0.00 0.00 0.00 58 1021.2
20260506225516 64 89 0.0 3.0 0.00 0.00 0.00 59 1021.3
20260506224515 64 355 4.0 6.0 0.00 0.00 0.00 59 1021.4
20260506223613 64 58 1.0 3.0 0.00 0.00 0.00 60 1021.5
20260506221716 64 175 1.0 4.0 0.00 0.00 0.00 58 1021.5
20260506215913 62 113 3.0 6.0 0.00 0.00 0.00 61 1021.7
20260506214914 62 130 2.0 5.0 0.00 0.00 0.00 61 1021.8
20260506213916 62 25 4.0 6.0 0.00 0.01 0.00 62 1021.9
20260506212916 61 20 3.0 5.0 0.00 0.01 0.00 62 1021.9
20260506211916 61 124 3.0 6.0 0.00 0.01 0.00 62 1022.0
20260506205914 62 3 1.0 3.0 0.00 0.01 0.00 60 1021.8
20260506205014 62 135 0.0 0.0 0.00 0.01 0.00 60 1021.8
20260506203015 61 180 0.0 1.0 0.00 0.02 0.00 62 1021.9
20260506202014 60 43 2.0 6.0 0.00 0.02 0.00 63 1021.9
20260506201015 60 8 4.0 8.0 0.00 0.02 0.00 63 1022.1
20260506200113 59 14 1.0 4.0 0.00 0.02 0.00 64 1022.0
20260506200015 59 347 2.0 4.0 0.00 0.02 0.00 64 1022.0
20260506195017 58 112 2.0 5.0 0.00 0.02 0.00 64 1022.1
20260506194114 58 150 1.0 5.0 0.00 0.02 0.00 63 1022.1
20260506192116 59 354 2.0 4.0 0.00 0.02 0.00 60 1022.0
20260506191115 59 72 1.0 6.0 0.00 0.02 0.00 59 1022.0
20260506190114 58 330 1.0 3.0 0.00 0.02 0.00 60 1021.9
20260506185116 58 104 2.0 5.0 0.00 0.02 0.00 62 1022.0
20260506185016 58 16 3.0 7.0 0.00 0.02 0.00 62 1022.0
20260506184015 57 87 2.0 3.0 0.00 0.02 0.00 61 1022.1
20260506183015 57 60 3.0 4.0 0.00 0.02 0.00 62 1022.0
20260506182014 58 326 1.0 6.0 0.00 0.02 0.00 61 1022.0
20260506181014 57 10 3.0 6.0 0.00 0.02 0.00 63 1021.7
20260506180915 57 33 2.0 4.0 0.00 0.02 0.00 63 1021.8
20260506175916 56 19 1.0 4.0 0.00 0.02 0.00 64 1021.9
20260506175014 56 13 2.0 4.0 0.00 0.02 0.00 64 1021.9
20260506174915 56 19 0.0 2.0 0.00 0.02 0.00 64 1022.0
20260506173915 56 67 0.0 2.0 0.00 0.02 0.00 67 1022.0
20260506172915 56 58 1.0 4.0 0.00 0.02 0.00 65 1021.7
20260506171916 55 3 0.0 3.0 0.00 0.03 0.00 67 1021.7
20260506170914 55 22 0.0 3.0 0.00 0.03 0.00 67 1021.5
20260506170816 55 13 0.0 1.0 0.00 0.03 0.00 66 1021.7
20260506165815 54 359 1.0 3.0 0.00 0.03 0.00 64 1021.7
20260506164714 54 349 2.0 3.0 0.00 0.03 0.00 66 1021.7
20260506162814 53 104 1.0 4.0 0.00 0.03 0.00 68 1021.5
20260506161814 53 360 0.0 0.0 0.00 0.03 0.00 68 1021.5
20260506160814 54 45 0.0 2.0 0.00 0.03 0.00 68 1021.5
20260506155816 52 112 0.0 1.0 0.00 0.03 0.00 70 1021.5
20260506155716 52 111 1.0 3.0 0.00 0.03 0.00 71 1021.6
20260506154714 50 90 0.0 1.0 0.00 0.03 0.00 71 1021.5
20260506153715 49 37 0.0 0.0 0.00 0.04 0.00 74 1021.4
20260506152814 48 135 0.0 1.0 0.00 0.04 0.00 80 1021.4
20260506151816 47 180 0.0 0.0 0.00 0.04 0.00 84 1021.4
20260506150815 45 180 0.0 0.0 0.00 0.04 0.00 84 1021.2
20260506145815 42 180 0.0 0.0 0.00 0.04 0.00 91 1021.1
20260506144813 40 180 0.0 0.0 0.00 0.04 0.00 91 1020.9
20260506144714 39 180 0.0 0.0 0.00 0.04 0.00 92 1020.9
20260506143713 37 180 0.0 0.0 0.00 0.04 0.00 97 1020.8
20260506142713 35 180 0.0 0.0 0.00 0.04 0.00 97 1020.6
20260506135816 33 180 0.0 0.0 0.00 0.05 0.00 97 1020.3
20260506134815 32 180 0.0 0.0 0.00 0.05 0.00 97 1020.2
20260506133815 32 180 0.0 0.0 0.00 0.05 0.00 96 1020.2
20260506133713 32 180 0.0 0.0 0.00 0.05 0.00 96 1020.2
20260506132715 32 180 0.0 0.0 0.00 0.05 0.00 96 1020.1
20260506125815 33 180 0.0 0.0 0.00 0.06 0.00 96 1019.8
20260506124814 34 180 0.0 0.0 0.00 0.06 0.00 96 1019.9
20260506124715 34 180 0.0 0.0 0.00 0.06 0.00 96 1019.8
20260506123713 35 180 0.0 0.0 0.00 0.06 0.00 96 1019.8
20260506122714 35 180 0.0 0.0 0.00 0.07 0.00 96 1019.8
20260506121715 35 180 0.0 0.0 0.00 0.07 0.00 96 1020.0
20260506120714 35 180 0.0 0.0 0.00 0.07 0.00 95 1019.9
20260506114713 35 180 0.0 0.0 0.00 0.08 0.00 96 1019.9
20260506112714 37 180 0.0 0.0 0.00 0.09 0.00 95 1019.8
20260506110713 38 180 0.0 0.0 0.00 0.09 0.00 95 1019.5
20260506104715 39 180 0.0 0.0 0.00 0.09 0.00 96 1019.5
20260506103714 39 180 0.0 0.0 0.00 0.09 0.00 96 1019.5
20260506102714 39 180 0.0 0.0 0.00 0.09 0.00 96 1019.3
20260506102612 39 180 0.0 0.0 0.00 0.09 0.00 96 1019.3
20260506102515 39 180 0.0 0.0 0.00 0.09 0.00 96 1019.3
20260506101514 39 180 0.0 0.0 0.00 0.09 0.00 96 1019.3
20260506100515 39 180 0.0 0.0 0.00 0.09 0.00 95 1019.3
20260506095614 39 180 0.0 0.0 0.00 0.09 0.00 95 1019.3
20260506095515 39 180 0.0 0.0 0.00 0.09 0.00 95 1019.5
20260506094613 39 180 0.0 0.0 0.00 0.09 0.00 96 1019.3
20260506093614 39 180 0.0 0.0 0.00 0.09 0.00 96 1019.3
20260506091614 38 180 0.0 0.0 0.00 0.09 0.00 95 1019.5
20260506090713 38 180 0.0 0.0 0.00 0.09 0.00 96 1019.6